| time (UTC) | temp F | wind direction | speed MPH | gust MPH | rain 1hr in | rain 24hr in | rain mn in | humidity % | barometer mb |
| 20260505100351 | 48 | 196 | 0.0 | 0.0 | 0.00 | 0.12 | 0.02 | 89 | 1023.8 |
| 20260505095813 | 48 | 196 | 0.0 | 1.0 | 0.00 | 0.12 | 0.02 | 89 | 1023.9 |
| 20260505095315 | 48 | 196 | 0.0 | 1.0 | 0.00 | 0.12 | 0.02 | 89 | 1023.8 |
| 20260505094834 | 48 | 196 | 0.0 | 0.0 | 0.00 | 0.12 | 0.02 | 88 | 1023.8 |
| 20260505094321 | 48 | 196 | 0.0 | 2.0 | 0.00 | 0.12 | 0.02 | 88 | 1023.8 |
| 20260505093816 | 48 | 200 | 0.0 | 2.0 | 0.00 | 0.12 | 0.02 | 88 | 1023.8 |
| 20260505093321 | 49 | 202 | 0.0 | 0.0 | 0.00 | 0.12 | 0.02 | 88 | 1023.7 |
| 20260505092822 | 49 | 201 | 0.0 | 0.0 | 0.00 | 0.12 | 0.02 | 87 | 1023.6 |
| 20260505092326 | 49 | 201 | 0.0 | 0.0 | 0.00 | 0.12 | 0.02 | 87 | 1023.7 |
| 20260505091830 | 49 | 201 | 0.0 | 1.0 | 0.00 | 0.12 | 0.02 | 87 | 1023.6 |
| 20260505091333 | 50 | 200 | 0.0 | 1.0 | 0.00 | 0.12 | 0.02 | 87 | 1023.6 |
| 20260505090835 | 50 | 216 | 0.0 | 1.0 | 0.00 | 0.12 | 0.02 | 87 | 1023.5 |
| 20260505090351 | 50 | 233 | 0.0 | 0.0 | 0.00 | 0.12 | 0.02 | 86 | 1023.4 |
| 20260505085810 | 50 | 234 | 0.0 | 3.0 | 0.00 | 0.12 | 0.02 | 85 | 1023.3 |
| 20260505085315 | 50 | 234 | 0.0 | 3.0 | 0.00 | 0.12 | 0.02 | 84 | 1023.4 |
| 20260505084817 | 50 | 236 | 0.0 | 0.0 | 0.00 | 0.12 | 0.02 | 83 | 1023.1 |
| 20260505084321 | 51 | 236 | 0.0 | 0.0 | 0.00 | 0.12 | 0.02 | 83 | 1023.1 |
| 20260505083818 | 51 | 236 | 0.0 | 0.0 | 0.00 | 0.12 | 0.02 | 83 | 1023.1 |
| 20260505083318 | 51 | 236 | 0.0 | 0.0 | 0.00 | 0.12 | 0.02 | 82 | 1023.1 |
| 20260505082819 | 52 | 236 | 0.0 | 0.0 | 0.00 | 0.12 | 0.02 | 82 | 1023.1 |
| 20260505082322 | 52 | 236 | 0.0 | 1.0 | 0.00 | 0.12 | 0.02 | 82 | 1023.1 |
| 20260505081848 | 53 | 236 | 0.0 | 1.0 | 0.00 | 0.12 | 0.02 | 81 | 1022.9 |
| 20260505081329 | 53 | 236 | 0.0 | 0.0 | 0.00 | 0.12 | 0.02 | 81 | 1023.0 |
| 20260505080856 | 54 | 236 | 0.0 | 0.0 | 0.00 | 0.12 | 0.02 | 81 | 1023.0 |
| 20260505080333 | 54 | 236 | 0.0 | 1.0 | 0.00 | 0.12 | 0.02 | 80 | 1022.9 |
| 20260505075814 | 54 | 236 | 0.0 | 2.0 | 0.00 | 0.12 | 0.02 | 80 | 1022.9 |
| 20260505075319 | 55 | 236 | 0.0 | 2.0 | 0.00 | 0.12 | 0.02 | 79 | 1022.9 |
| 20260505074822 | 55 | 236 | 0.0 | 2.0 | 0.00 | 0.12 | 0.02 | 78 | 1022.8 |
| 20260505074325 | 55 | 236 | 1.0 | 3.0 | 0.00 | 0.12 | 0.02 | 78 | 1022.9 |
| 20260505073823 | 56 | 234 | 1.0 | 3.0 | 0.00 | 0.12 | 0.02 | 77 | 1022.8 |
| 20260505073328 | 56 | 224 | 1.0 | 4.0 | 0.00 | 0.12 | 0.02 | 77 | 1022.7 |
| 20260505072810 | 56 | 224 | 2.0 | 4.0 | 0.00 | 0.12 | 0.02 | 76 | 1022.7 |
| 20260505072316 | 56 | 233 | 1.0 | 3.0 | 0.00 | 0.12 | 0.02 | 76 | 1022.7 |
| 20260505071817 | 57 | 233 | 1.0 | 3.0 | 0.00 | 0.12 | 0.02 | 75 | 1022.6 |
| 20260505071341 | 57 | 233 | 1.0 | 3.0 | 0.00 | 0.12 | 0.02 | 75 | 1022.6 |
| 20260505070818 | 57 | 231 | 2.0 | 3.0 | 0.00 | 0.12 | 0.02 | 74 | 1022.6 |
| 20260505070344 | 57 | 225 | 2.0 | 4.0 | 0.00 | 0.12 | 0.02 | 74 | 1022.4 |
| 20260505065825 | 58 | 223 | 2.0 | 5.0 | 0.00 | 0.47 | 0.02 | 73 | 1022.4 |
| 20260505065310 | 58 | 223 | 4.0 | 6.0 | 0.00 | 0.47 | 0.02 | 72 | 1022.4 |
| 20260505064856 | 58 | 211 | 3.0 | 8.0 | 0.00 | 0.47 | 0.02 | 72 | 1022.3 |
| 20260505064319 | 59 | 207 | 4.0 | 8.0 | 0.00 | 0.47 | 0.02 | 70 | 1022.1 |
| 20260505063818 | 59 | 222 | 4.0 | 8.0 | 0.00 | 0.47 | 0.02 | 70 | 1022.2 |
| 20260505063323 | 60 | 211 | 4.0 | 5.0 | 0.00 | 0.47 | 0.02 | 69 | 1022.0 |
| 20260505062826 | 60 | 220 | 2.0 | 9.0 | 0.00 | 0.47 | 0.02 | 68 | 1022.0 |
| 20260505062331 | 61 | 246 | 4.0 | 9.0 | 0.00 | 0.47 | 0.02 | 68 | 1022.2 |
| 20260505061815 | 61 | 275 | 2.0 | 4.0 | 0.00 | 0.47 | 0.02 | 67 | 1022.0 |
| 20260505061340 | 62 | 252 | 2.0 | 4.0 | 0.00 | 0.47 | 0.02 | 66 | 1022.0 |
| 20260505060822 | 62 | 256 | 2.0 | 4.0 | 0.00 | 0.47 | 0.02 | 67 | 1022.0 |
| 20260505055822 | 61 | 230 | 1.0 | 2.0 | 0.00 | 0.63 | 0.02 | 68 | 1022.0 |
| 20260505055316 | 61 | 279 | 0.0 | 5.0 | 0.00 | 0.63 | 0.02 | 68 | 1022.0 |
| 20260505054821 | 61 | 279 | 1.0 | 6.0 | 0.00 | 0.63 | 0.02 | 67 | 1022.0 |
| 20260505053827 | 60 | 283 | 1.0 | 5.0 | 0.00 | 0.63 | 0.02 | 68 | 1022.0 |
| 20260505053333 | 60 | 265 | 2.0 | 10.0 | 0.00 | 0.63 | 0.02 | 68 | 1021.9 |
| 20260505052835 | 60 | 221 | 4.0 | 10.0 | 0.00 | 0.63 | 0.02 | 68 | 1021.9 |
| 20260505052313 | 60 | 219 | 7.0 | 10.0 | 0.00 | 0.63 | 0.02 | 68 | 1021.8 |
| 20260505051340 | 60 | 269 | 2.0 | 8.0 | 0.00 | 0.63 | 0.02 | 68 | 1021.8 |
| 20260505050844 | 60 | 275 | 2.0 | 8.0 | 0.00 | 0.63 | 0.02 | 66 | 1021.8 |
| 20260505041349 | 60 | 185 | 5.0 | 11.0 | 0.00 | 0.67 | 0.02 | 71 | 1021.5 |
| 20260505040833 | 59 | 185 | 8.0 | 11.0 | 0.00 | 0.67 | 0.02 | 72 | 1021.5 |
| 20260505040317 | 59 | 190 | 7.0 | 10.0 | 0.00 | 0.67 | 0.02 | 72 | 1021.5 |
| 20260505035818 | 59 | 185 | 3.0 | 9.0 | 0.00 | 0.75 | 0.02 | 71 | 1021.6 |
| 20260505035323 | 59 | 254 | 3.0 | 9.0 | 0.00 | 0.75 | 0.02 | 70 | 1021.5 |
| 20260505034840 | 60 | 212 | 4.0 | 11.0 | 0.00 | 0.75 | 0.02 | 69 | 1021.6 |
| 20260505034321 | 60 | 204 | 8.0 | 13.0 | 0.00 | 0.75 | 0.02 | 72 | 1021.6 |
| 20260505033821 | 60 | 200 | 8.0 | 13.0 | 0.00 | 0.75 | 0.02 | 70 | 1021.6 |
| 20260505033324 | 60 | 194 | 4.0 | 8.0 | 0.00 | 0.75 | 0.02 | 73 | 1021.7 |
| 20260505032847 | 60 | 211 | 4.0 | 10.0 | 0.00 | 0.75 | 0.02 | 69 | 1021.8 |
| 20260505032328 | 60 | 259 | 4.0 | 10.0 | 0.00 | 0.75 | 0.02 | 71 | 1021.8 |
| 20260505031832 | 60 | 237 | 5.0 | 9.0 | 0.00 | 0.75 | 0.02 | 70 | 1021.9 |
| 20260505031355 | 59 | 222 | 3.0 | 12.0 | 0.00 | 0.75 | 0.02 | 71 | 1021.9 |
| 20260505030812 | 59 | 207 | 6.0 | 12.0 | 0.00 | 0.75 | 0.02 | 72 | 1022.0 |
| 20260505025815 | 60 | 209 | 6.0 | 13.0 | 0.00 | 2.48 | 0.02 | 73 | 1022.0 |
| 20260505025319 | 59 | 263 | 8.0 | 13.0 | 0.00 | 2.48 | 0.02 | 71 | 1022.2 |
| 20260505024323 | 59 | 185 | 8.0 | 13.0 | 0.00 | 2.48 | 0.02 | 71 | 1022.1 |
| 20260505023819 | 59 | 180 | 10.0 | 13.0 | 0.00 | 2.48 | 0.02 | 71 | 1022.3 |
| 20260505023342 | 59 | 185 | 8.0 | 13.0 | 0.00 | 2.48 | 0.02 | 75 | 1022.2 |
| 20260505022837 | 58 | 194 | 4.0 | 9.0 | 0.00 | 2.48 | 0.02 | 74 | 1022.4 |
| 20260505022339 | 58 | 218 | 5.0 | 9.0 | 0.00 | 2.48 | 0.02 | 76 | 1022.4 |
| 20260505021321 | 58 | 205 | 8.0 | 11.0 | 0.00 | 2.48 | 0.02 | 78 | 1022.6 |
| 20260505020814 | 57 | 207 | 4.0 | 8.0 | 0.00 | 2.48 | 0.02 | 79 | 1022.7 |
| 20260505015820 | 57 | 198 | 6.0 | 12.0 | 0.00 | 2.52 | 0.02 | 80 | 1022.8 |
| 20260505015322 | 57 | 195 | 8.0 | 12.0 | 0.00 | 2.52 | 0.02 | 81 | 1022.8 |
| 20260505014326 | 58 | 165 | 8.0 | 11.0 | 0.00 | 2.52 | 0.02 | 81 | 1022.9 |
| 20260505013828 | 57 | 168 | 7.0 | 12.0 | 0.00 | 2.52 | 0.02 | 82 | 1022.8 |
| 20260505012828 | 57 | 190 | 9.0 | 12.0 | 0.00 | 2.52 | 0.02 | 82 | 1022.9 |
| 20260505012318 | 57 | 203 | 7.0 | 11.0 | 0.00 | 2.52 | 0.02 | 83 | 1022.9 |
| 20260505011821 | 57 | 174 | 7.0 | 10.0 | 0.00 | 2.52 | 0.02 | 83 | 1023.0 |
| 20260505011323 | 56 | 153 | 5.0 | 10.0 | 0.00 | 2.52 | 0.02 | 85 | 1023.0 |
| 20260505010825 | 56 | 156 | 6.0 | 10.0 | 0.00 | 2.52 | 0.02 | 87 | 1022.9 |
| 20260505010317 | 56 | 234 | 3.0 | 9.0 | 0.00 | 2.52 | 0.02 | 86 | 1022.9 |
| 20260505005826 | 55 | 204 | 5.0 | 9.0 | 0.00 | 2.60 | 0.02 | 88 | 1022.9 |
| 20260505005330 | 55 | 180 | 6.0 | 9.0 | 0.00 | 2.60 | 0.02 | 89 | 1022.9 |
| 20260505004823 | 55 | 165 | 3.0 | 10.0 | 0.00 | 2.60 | 0.02 | 89 | 1022.9 |
| 20260505004322 | 55 | 173 | 8.0 | 10.0 | 0.00 | 2.60 | 0.02 | 90 | 1022.8 |
| 20260505003822 | 55 | 133 | 2.0 | 11.0 | 0.00 | 2.60 | 0.02 | 91 | 1023.0 |
| 20260505002827 | 54 | 173 | 7.0 | 11.0 | 0.00 | 2.60 | 0.02 | 92 | 1022.9 |
| 20260505002326 | 54 | 185 | 5.0 | 10.0 | 0.00 | 2.60 | 0.02 | 94 | 1023.0 |
| 20260505001325 | 54 | 180 | 8.0 | 11.0 | 0.00 | 2.60 | 0.02 | 95 | 1022.6 |
| 20260505000819 | 53 | 180 | 5.0 | 10.0 | 0.00 | 2.60 | 0.02 | 95 | 1022.5 |
| 20260505000322 | 53 | 194 | 6.0 | 10.0 | 0.00 | 2.60 | 0.02 | 95 | 1022.5 |
| 20260504235823 | 53 | 146 | 4.0 | 8.0 | 0.00 | 2.68 | 0.02 | 96 | 1022.4 |
| 20260504235325 | 53 | 173 | 4.0 | 8.0 | 0.00 | 2.68 | 0.02 | 97 | 1022.5 |
| 20260504234826 | 53 | 180 | 1.0 | 5.0 | 0.00 | 2.68 | 0.02 | 96 | 1022.5 |
| 20260504234327 | 53 | 296 | 0.0 | 4.0 | 0.00 | 2.68 | 0.02 | 96 | 1022.6 |
| 20260504233342 | 53 | 185 | 2.0 | 3.0 | 0.00 | 2.68 | 0.02 | 97 | 1022.5 |
| 20260504232820 | 52 | 315 | 0.0 | 6.0 | 0.00 | 2.68 | 0.02 | 97 | 1022.4 |
| 20260504232322 | 52 | 265 | 1.0 | 4.0 | 0.00 | 2.68 | 0.02 | 96 | 1022.4 |
| 20260504231823 | 52 | 300 | 1.0 | 4.0 | 0.00 | 2.68 | 0.02 | 96 | 1022.4 |
| 20260504231320 | 52 | 274 | 1.0 | 4.0 | 0.00 | 2.68 | 0.02 | 97 | 1022.4 |
| 20260504230813 | 52 | 244 | 1.0 | 4.0 | 0.00 | 2.68 | 0.02 | 97 | 1022.3 |
| 20260504230315 | 52 | 351 | 1.0 | 4.0 | 0.00 | 2.68 | 0.02 | 97 | 1022.4 |
| 20260504225323 | 52 | 269 | 1.0 | 3.0 | 0.00 | 2.80 | 0.02 | 97 | 1022.4 |
| 20260504224828 | 52 | 338 | 1.0 | 3.0 | 0.00 | 2.80 | 0.02 | 97 | 1022.5 |
| 20260504224311 | 52 | 324 | 1.0 | 3.0 | 0.00 | 2.80 | 0.02 | 97 | 1022.4 |
| 20260504223835 | 52 | 9 | 2.0 | 5.0 | 0.00 | 2.80 | 0.02 | 97 | 1022.3 |
| 20260504222834 | 51 | 360 | 1.0 | 4.0 | 0.00 | 2.80 | 0.02 | 97 | 1022.3 |
| 20260504222327 | 50 | 349 | 3.0 | 4.0 | 0.00 | 2.80 | 0.02 | 97 | 1022.2 |
| 20260504221849 | 50 | 354 | 1.0 | 2.0 | 0.00 | 2.80 | 0.02 | 97 | 1022.1 |
| 20260504221310 | 49 | 356 | 1.0 | 2.0 | 0.00 | 2.80 | 0.02 | 97 | 1022.2 |
| 20260504220833 | 49 | 357 | 0.0 | 2.0 | 0.00 | 2.80 | 0.02 | 97 | 1022.1 |
| 20260504220331 | 48 | 7 | 1.0 | 2.0 | 0.00 | 2.80 | 0.02 | 97 | 1021.9 |
| 20260504215813 | 47 | 7 | 0.0 | 2.0 | 0.00 | 2.87 | 0.02 | 97 | 1021.9 |
| 20260504215331 | 47 | 6 | 0.0 | 1.0 | 0.00 | 2.87 | 0.02 | 97 | 1021.9 |
| 20260504214815 | 46 | 6 | 0.0 | 1.0 | 0.00 | 2.87 | 0.02 | 96 | 1021.8 |
| 20260504214347 | 46 | 6 | 0.0 | 1.0 | 0.00 | 2.87 | 0.02 | 96 | 1021.7 |
| 20260504213328 | 46 | 6 | 1.0 | 2.0 | 0.00 | 2.87 | 0.02 | 97 | 1021.7 |
| 20260504212852 | 45 | 6 | 0.0 | 1.0 | 0.04 | 2.87 | 0.02 | 97 | 1021.7 |
| 20260504212328 | 45 | 6 | 0.0 | 2.0 | 0.04 | 2.87 | 0.02 | 97 | 1021.5 |
| 20260504211812 | 44 | 6 | 1.0 | 2.0 | 0.04 | 2.87 | 0.02 | 96 | 1021.4 |
| 20260504211313 | 44 | 8 | 0.0 | 1.0 | 0.04 | 2.87 | 0.02 | 95 | 1021.3 |
| 20260504210835 | 44 | 8 | 0.0 | 1.0 | 0.04 | 2.87 | 0.02 | 95 | 1021.3 |
| 20260504205817 | 45 | 9 | 0.0 | 2.0 | 0.04 | 2.95 | 0.02 | 95 | 1021.0 |
| 20260504205335 | 45 | 8 | 1.0 | 2.0 | 0.04 | 2.95 | 0.02 | 95 | 1020.9 |
| 20260504204812 | 45 | 355 | 0.0 | 1.0 | 0.04 | 2.95 | 0.02 | 96 | 1020.8 |
| 20260504204334 | 45 | 355 | 0.0 | 1.0 | 0.04 | 2.95 | 0.02 | 96 | 1020.7 |
| 20260504203320 | 44 | 355 | 0.0 | 2.0 | 0.04 | 2.95 | 0.02 | 95 | 1020.6 |
| 20260504202822 | 44 | 355 | 0.0 | 2.0 | 0.00 | 2.91 | 0.01 | 95 | 1020.6 |
| 20260504201820 | 45 | 357 | 0.0 | 2.0 | 0.00 | 2.91 | 0.01 | 95 | 1020.6 |
| 20260504201321 | 45 | 357 | 0.0 | 2.0 | 0.00 | 2.91 | 0.01 | 95 | 1020.5 |
| 20260504200823 | 45 | 357 | 0.0 | 1.0 | 0.00 | 2.91 | 0.01 | 95 | 1020.4 |
| 20260504200326 | 45 | 357 | 0.0 | 1.0 | 0.00 | 2.91 | 0.01 | 95 | 1020.5 |
| 20260504195826 | 45 | 357 | 0.0 | 1.0 | 0.00 | 3.03 | 0.01 | 95 | 1020.4 |
| 20260504195327 | 46 | 357 | 0.0 | 1.0 | 0.00 | 3.03 | 0.01 | 95 | 1020.3 |
| 20260504194819 | 46 | 357 | 0.0 | 2.0 | 0.00 | 3.03 | 0.01 | 95 | 1020.4 |
| 20260504194321 | 47 | 357 | 0.0 | 2.0 | 0.00 | 3.03 | 0.01 | 94 | 1020.3 |
| 20260504193825 | 47 | 333 | 0.0 | 1.0 | 0.00 | 3.03 | 0.01 | 95 | 1020.3 |
| 20260504193328 | 48 | 333 | 0.0 | 1.0 | 0.00 | 3.03 | 0.01 | 95 | 1020.4 |
| 20260504192852 | 48 | 306 | 0.0 | 1.0 | 0.00 | 3.03 | 0.01 | 96 | 1020.3 |
| 20260504192335 | 48 | 304 | 0.0 | 2.0 | 0.00 | 3.03 | 0.01 | 96 | 1020.3 |
| 20260504191813 | 48 | 302 | 0.0 | 3.0 | 0.00 | 3.03 | 0.01 | 96 | 1020.2 |
| 20260504191313 | 48 | 342 | 0.0 | 3.0 | 0.00 | 3.03 | 0.01 | 96 | 1020.2 |
| 20260504190323 | 48 | 329 | 0.0 | 3.0 | 0.00 | 3.03 | 0.01 | 96 | 1020.1 |
| 20260504185824 | 47 | 325 | 1.0 | 3.0 | 0.00 | 3.15 | 0.01 | 96 | 1019.9 |
| 20260504185329 | 47 | 320 | 1.0 | 3.0 | 0.00 | 3.15 | 0.01 | 96 | 1019.8 |
| 20260504184828 | 47 | 344 | 0.0 | 3.0 | 0.00 | 3.15 | 0.01 | 95 | 1019.8 |
| 20260504184337 | 48 | 317 | 1.0 | 3.0 | 0.00 | 3.15 | 0.01 | 95 | 1019.7 |
| 20260504183814 | 48 | 334 | 0.0 | 4.0 | 0.00 | 3.15 | 0.01 | 96 | 1019.8 |
| 20260504183315 | 48 | 329 | 1.0 | 3.0 | 0.00 | 3.15 | 0.01 | 96 | 1019.6 |
| 20260504182819 | 48 | 331 | 1.0 | 3.0 | 0.00 | 3.15 | 0.01 | 95 | 1019.7 |
| 20260504182338 | 48 | 342 | 1.0 | 3.0 | 0.00 | 3.15 | 0.01 | 96 | 1019.6 |
| 20260504181821 | 48 | 352 | 0.0 | 5.0 | 0.00 | 3.15 | 0.01 | 96 | 1019.5 |
| 20260504181345 | 48 | 346 | 1.0 | 4.0 | 0.00 | 3.15 | 0.01 | 96 | 1019.5 |
| 20260504180850 | 48 | 354 | 1.0 | 4.0 | 0.00 | 3.15 | 0.01 | 96 | 1019.5 |
| 20260504180334 | 48 | 340 | 1.0 | 5.0 | 0.00 | 3.15 | 0.01 | 95 | 1019.5 |
| 20260504175814 | 48 | 318 | 1.0 | 4.0 | 0.00 | 3.31 | 0.01 | 96 | 1019.3 |
| 20260504174815 | 48 | 310 | 1.0 | 7.0 | 0.00 | 3.31 | 0.01 | 96 | 1019.3 |
| 20260504174320 | 48 | 356 | 2.0 | 7.0 | 0.00 | 3.31 | 0.01 | 96 | 1019.2 |
| 20260504173350 | 47 | 323 | 1.0 | 5.0 | 0.00 | 3.31 | 0.01 | 96 | 1019.3 |
| 20260504172830 | 47 | 304 | 2.0 | 5.0 | 0.00 | 3.31 | 0.01 | 96 | 1019.2 |
| 20260504172330 | 47 | 323 | 3.0 | 6.0 | 0.00 | 3.31 | 0.01 | 96 | 1019.3 |
| 20260504171827 | 47 | 338 | 2.0 | 7.0 | 0.00 | 3.31 | 0.01 | 96 | 1019.2 |
| 20260504171310 | 46 | 358 | 2.0 | 6.0 | 0.00 | 3.31 | 0.01 | 96 | 1019.3 |
| 20260504170815 | 46 | 338 | 4.0 | 7.0 | 0.00 | 3.31 | 0.01 | 96 | 1019.3 |
| 20260504170318 | 46 | 317 | 1.0 | 4.0 | 0.00 | 3.31 | 0.01 | 95 | 1019.4 |
| 20260504160320 | 46 | 312 | 0.0 | 3.0 | 0.04 | 3.58 | 0.01 | 95 | 1019.8 |
| 20260504150833 | 48 | 351 | 0.0 | 3.0 | 0.00 | 3.94 | 0.00 | 95 | 1020.0 |
| 20260504150314 | 48 | 307 | 0.0 | 3.0 | 0.00 | 3.94 | 0.00 | 95 | 1019.9 |
| 20260504141330 | 48 | 320 | 0.0 | 2.0 | 0.00 | 4.41 | 0.00 | 95 | 1020.3 |
| 20260504140812 | 48 | 335 | 0.0 | 2.0 | 0.00 | 4.41 | 0.00 | 95 | 1020.3 |
| 20260504130812 | 48 | 320 | 1.0 | 3.0 | 0.00 | 5.04 | 0.88 | 95 | 1019.9 |
| 20260504130336 | 48 | 318 | 1.0 | 3.0 | 0.00 | 5.04 | 0.88 | 95 | 1019.9 |
| 20260504110316 | 51 | 331 | 0.0 | 1.0 | 0.00 | 6.46 | 0.87 | 94 | 1019.8 |